EW9318 Weather Reports


time (UTC)temp
F
wind
direction
speed
knots
gust
knots
rain 1hr
in
rain 24hr
in
rain mn
in
humidity
%
barometer
mb
20260506135516 47 93 1.7 5.2 0.00 0.00 0.00 52 1011.4
20260506135037 46 53 2.6 6.1 0.00 0.00 0.00 52 1011.5
20260506134536 46 13 1.7 7.0 0.00 0.00 0.00 55 1011.4
20260506134037 46 27 2.6 7.0 0.00 0.00 0.00 56 1011.3
20260506133536 45 16 2.6 6.1 0.00 0.00 0.00 58 1011.3
20260506133016 45 33 3.5 7.8 0.00 0.00 0.00 57 1011.2
20260506132516 45 39 4.3 7.8 0.00 0.00 0.00 58 1011.0
20260506132017 45 50 2.6 7.0 0.00 0.00 0.00 59 1011.0
20260506131515 45 32 3.5 7.8 0.00 0.00 0.00 59 1011.1
20260506131015 45 43 4.3 7.8 0.00 0.00 0.00 60 1011.1
20260506130516 45 43 3.5 7.8 0.00 0.00 0.00 60 1011.1
20260506130016 45 25 3.5 7.8 0.00 0.00 0.00 63 1011.1
20260506125515 45 31 3.5 7.0 0.00 0.00 0.00 63 1011.0
20260506125037 44 60 2.6 6.1 0.00 0.00 0.00 65 1011.1
20260506124015 43 46 2.6 7.0 0.00 0.00 0.00 68 1011.1
20260506123537 43 4 2.6 7.0 0.00 0.00 0.00 68 1011.1
20260506123017 42 15 2.6 6.1 0.00 0.00 0.00 71 1011.1
20260506122516 41 2 2.6 6.1 0.00 0.00 0.00 74 1011.1
20260506122015 40 355 0.0 4.3 0.00 0.00 0.00 79 1010.9
20260506121515 40 297 0.9 2.6 0.00 0.00 0.00 79 1010.9
20260506121037 39 270 0.9 3.5 0.00 0.00 0.00 82 1010.8
20260506120516 39 266 1.7 3.5 0.00 0.00 0.00 83 1010.7
20260506120015 38 255 2.6 3.5 0.00 0.00 0.00 85 1010.7
20260506115515 38 256 1.7 3.5 0.00 0.00 0.00 87 1010.5
20260506115036 37 252 1.7 3.5 0.00 0.00 0.00 87 1010.4
20260506114557 36 253 1.7 2.6 0.00 0.00 0.00 87 1010.3
20260506114016 36 222 1.7 2.6 0.00 0.00 0.00 87 1010.2
20260506113515 35 142 0.0 1.7 0.00 0.00 0.00 85 1010.1
20260506113015 35 142 0.0 0.9 0.00 0.00 0.00 85 1009.9
20260506112515 35 0.0 0.0 0.00 0.00 0.00 84 1009.8
20260506112015 35 0.0 0.9 0.00 0.00 0.00 84 1009.8
20260506111515 35 141 0.0 0.9 0.00 0.00 0.00 83 1009.6
20260506111015 36 142 0.0 1.7 0.00 0.00 0.00 83 1009.5
20260506110515 36 142 0.9 1.7 0.00 0.00 0.00 83 1009.5
20260506110036 36 142 0.9 2.6 0.00 0.00 0.00 82 1009.5
20260506105516 36 141 0.0 2.6 0.00 0.00 0.00 82 1009.4
20260506105015 36 275 0.0 2.6 0.00 0.00 0.00 82 1009.2
20260506104515 36 275 0.9 2.6 0.00 0.00 0.00 82 1009.2
20260506104015 36 268 1.7 2.6 0.00 0.00 0.00 82 1009.3
20260506103515 36 279 1.7 2.6 0.00 0.00 0.00 82 1009.3
20260506103015 37 290 1.7 2.6 0.00 0.00 0.00 82 1009.3
20260506102515 37 298 0.9 1.7 0.00 0.00 0.00 82 1009.4
20260506102035 37 300 0.9 2.6 0.00 0.00 0.00 82 1009.3
20260506101536 37 296 0.9 2.6 0.00 0.00 0.00 82 1009.6
20260506101017 37 287 1.7 2.6 0.00 0.00 0.00 82 1009.5
20260506100535 37 297 0.9 2.6 0.00 0.00 0.00 83 1009.4
20260506100015 37 308 0.9 2.6 0.00 0.00 0.00 83 1009.4
20260506095515 37 303 0.9 2.6 0.00 0.00 0.00 83 1009.3
20260506095036 37 291 0.9 3.5 0.00 0.00 0.00 83 1009.3
20260506094515 37 275 1.7 3.5 0.00 0.00 0.00 83 1009.4
20260506094038 37 274 1.7 3.5 0.00 0.00 0.00 83 1009.4
20260506093516 37 291 0.9 2.6 0.00 0.00 0.00 82 1009.3
20260506093015 37 280 0.9 2.6 0.00 0.00 0.00 83 1009.2
20260506092535 37 281 0.9 2.6 0.00 0.00 0.00 82 1009.2
20260506092015 37 298 0.0 1.7 0.00 0.00 0.00 81 1009.1
20260506091535 37 0.0 0.0 0.00 0.00 0.00 81 1008.9
20260506091015 37 0.0 0.0 0.00 0.00 0.00 81 1008.9
20260506090515 37 0.0 0.0 0.00 0.00 0.00 81 1008.8
20260506090015 37 0.0 0.0 0.00 0.00 0.00 81 1008.8
20260506085515 37 0.0 0.0 0.00 0.00 0.00 81 1008.8
20260506085015 37 0.0 0.0 0.00 0.00 0.00 80 1008.7
20260506084515 37 0.0 0.0 0.00 0.00 0.00 79 1008.6
20260506084015 37 0.0 0.0 0.00 0.00 0.00 77 1008.6
20260506083515 38 0.0 0.0 0.00 0.00 0.00 77 1008.6
20260506083138 38 0.0 0.0 0.00 0.00 0.00 78 1008.6
20260506082515 38 0.0 0.0 0.00 0.00 0.00 77 1008.5
20260506082015 38 0.0 0.0 0.00 0.00 0.00 77 1008.5
20260506081515 38 0.0 0.0 0.00 0.00 0.00 76 1008.5
20260506081016 39 0.0 0.0 0.00 0.00 0.00 76 1008.5
20260506080515 39 0.0 0.0 0.00 0.00 0.00 75 1008.5
20260506073517 40 252 0.0 1.7 0.00 0.00 0.00 71 1008.6
20260506073017 40 0.0 1.7 0.00 0.00 0.00 71 1008.6
20260506072517 41 252 0.0 2.6 0.00 0.00 0.00 70 1008.5
20260506072017 41 299 0.9 2.6 0.00 0.00 0.00 69 1008.7
20260506071517 41 329 0.9 1.7 0.00 0.00 0.00 68 1008.6
20260506071038 42 331 0.0 2.6 0.00 0.00 0.00 68 1008.6
20260506070517 42 335 0.9 2.6 0.00 0.00 0.00 68 1008.7
20260506062517 43 327 1.7 6.1 0.00 0.00 0.00 65 1008.7
20260506062017 43 329 2.6 7.0 0.00 0.00 0.00 64 1008.7
20260506061517 43 330 2.6 7.0 0.00 0.00 0.00 63 1008.8
20260506061017 43 327 1.7 6.1 0.00 0.00 0.00 63 1008.8
20260506060517 44 312 2.6 6.1 0.00 0.00 0.00 62 1008.9
20260506051016 44 300 3.5 7.8 0.00 0.00 0.00 61 1008.8
20260506050537 44 286 4.3 7.0 0.00 0.00 0.00 61 1009.1
20260506045018 44 304 4.3 7.0 0.00 0.00 0.00 63 1008.6
20260506044516 44 303 4.3 7.0 0.00 0.00 0.00 63 1008.6
20260506044016 44 280 2.6 5.2 0.00 0.00 0.00 66 1008.6
20260506043518 44 289 1.7 3.5 0.00 0.00 0.00 66 1008.5
20260506043018 44 287 1.7 4.3 0.00 0.00 0.00 67 1008.3
20260506042518 44 311 1.7 4.3 0.00 0.00 0.00 67 1007.9
20260506042017 44 313 0.0 3.5 0.00 0.00 0.00 70 1008.1
20260506041517 44 0.0 0.0 0.00 0.00 0.00 71 1008.1
20260506041018 44 0.0 0.0 0.00 0.00 0.00 71 1008.0
20260506040517 44 0.0 0.0 0.00 0.00 0.00 71 1007.9
20260506040016 44 0.0 0.0 0.00 0.00 0.00 71 1008.0
20260506035535 44 0.0 0.0 0.00 0.00 0.00 72 1008.0
20260506035015 44 0.0 0.0 0.00 0.00 0.00 73 1008.0
20260506034515 44 0.0 0.0 0.00 0.01 0.00 73 1008.0
20260506034017 44 0.0 0.0 0.00 0.01 0.00 73 1008.0
20260506033517 43 0.0 0.0 0.00 0.01 0.00 72 1007.9
20260506033017 43 0.0 0.0 0.00 0.01 0.00 74 1007.9
20260506032537 43 0.0 0.0 0.00 0.01 0.00 74 1007.9
20260506032018 43 0.0 0.0 0.00 0.01 0.00 74 1007.8
20260506031517 43 0.0 0.0 0.00 0.01 0.00 73 1007.7
20260506031017 43 0.0 0.0 0.00 0.01 0.00 72 1008.0
20260506030517 44 0.0 0.0 0.00 0.01 0.00 71 1008.1
20260506030018 44 0.0 0.0 0.00 0.01 0.00 71 1008.0
20260506025517 44 0.0 0.0 0.00 0.01 0.00 70 1008.0
20260506025018 44 0.0 0.0 0.00 0.01 0.00 70 1007.9
20260506024517 44 0.0 0.0 0.00 0.01 0.00 70 1007.9
20260506024017 44 0.0 0.0 0.00 0.01 0.00 69 1007.9
20260506023518 44 0.0 0.0 0.00 0.01 0.00 69 1007.7
20260506023017 44 0.0 0.0 0.00 0.01 0.00 69 1007.6
20260506022517 44 0.0 0.0 0.00 0.01 0.00 67 1007.5
20260506022017 44 0.0 0.0 0.00 0.01 0.00 65 1007.6
20260506021537 45 0.0 0.0 0.00 0.01 0.00 65 1007.6
20260506021017 45 0.0 0.0 0.00 0.01 0.00 63 1007.4
20260506020517 45 0.0 0.0 0.00 0.01 0.00 63 1007.3
20260506020017 45 0.0 0.0 0.00 0.01 0.00 63 1007.3
20260506015517 45 0.0 0.0 0.00 0.01 0.00 62 1007.1
20260506015017 45 0.0 0.0 0.00 0.01 0.00 62 1007.1
20260506014517 45 0.0 0.0 0.00 0.01 0.00 62 1007.0
20260506014017 46 0.0 0.0 0.00 0.01 0.00 62 1006.9
20260506013517 46 0.0 0.0 0.00 0.01 0.00 62 1006.8
20260506013037 46 0.0 0.0 0.00 0.01 0.00 61 1006.6
20260506012518 46 0.0 0.0 0.00 0.01 0.00 60 1006.5
20260506012018 47 0.0 0.0 0.00 0.01 0.00 57 1006.5
20260506011517 47 0.0 0.0 0.00 0.01 0.00 56 1006.5
20260506011018 47 0.0 0.0 0.00 0.01 0.00 55 1006.5
20260506010516 47 0.0 0.0 0.00 0.01 0.00 56 1006.6
20260506010016 47 0.0 0.0 0.00 0.01 0.00 57 1006.6
20260506005517 48 0.0 0.0 0.00 0.01 0.00 55 1006.7
20260506005016 48 0.0 0.0 0.00 0.01 0.00 52 1006.5
20260506004517 48 0.0 0.0 0.00 0.01 0.00 52 1006.6
20260506004017 49 0.0 0.0 0.00 0.01 0.00 53 1006.7
20260506003537 49 0.0 1.7 0.00 0.01 0.00 51 1006.6
20260506003016 49 309 0.0 1.7 0.00 0.01 0.00 50 1006.6
20260506002516 49 309 0.0 1.7 0.00 0.01 0.00 49 1006.6
20260506002038 49 308 0.9 1.7 0.00 0.01 0.00 46 1006.6
20260506001537 49 304 0.9 1.7 0.00 0.01 0.00 46 1006.6
20260506001016 49 304 0.9 1.7 0.00 0.01 0.00 45 1006.6
20260506000517 49 299 0.9 1.7 0.00 0.01 0.00 45 1006.7
20260506000017 49 295 0.9 3.5 0.00 0.01 0.00 46 1006.7
20260505235536 49 290 1.7 4.3 0.00 0.01 0.00 44 1006.8
20260505235038 49 302 2.6 4.3 0.00 0.01 0.00 44 1006.8
20260505234516 49 304 1.7 5.2 0.00 0.01 0.00 44 1006.8
20260505234016 49 281 1.7 5.2 0.00 0.01 0.00 44 1006.7
20260505233517 49 275 1.7 5.2 0.00 0.01 0.00 45 1006.7
20260505233018 49 288 1.7 5.2 0.00 0.01 0.00 45 1006.7
20260505232516 49 259 2.6 5.2 0.00 0.01 0.00 47 1006.7
20260505232017 49 282 1.7 6.1 0.00 0.01 0.00 44 1006.8
20260505231516 49 266 3.5 7.0 0.00 0.01 0.00 44 1006.9
20260505231037 50 305 2.6 7.0 0.00 0.01 0.00 44 1006.8
20260505230517 50 314 3.5 7.0 0.00 0.01 0.00 43 1006.9
20260505230037 50 292 3.5 7.0 0.00 0.01 0.00 42 1006.9
20260505225536 50 290 2.6 7.8 0.00 0.01 0.00 43 1006.9
20260505225017 50 312 4.3 7.8 0.00 0.01 0.00 43 1006.9
20260505224517 50 309 4.3 7.8 0.00 0.01 0.00 44 1006.9
20260505224017 50 314 4.3 8.7 0.00 0.01 0.00 43 1006.9
20260505223518 50 321 4.3 8.7 0.00 0.01 0.00 42 1007.0
20260505223016 50 301 3.5 7.0 0.00 0.01 0.00 44 1006.9
20260505222517 50 295 2.6 8.7 0.00 0.01 0.00 44 1006.8
20260505222017 50 282 4.3 8.7 0.00 0.01 0.00 44 1006.7
20260505221516 50 286 4.3 7.8 0.00 0.01 0.00 43 1006.8
20260505221057 50 284 5.2 7.0 0.00 0.01 0.00 43 1006.8
20260505220516 50 282 4.3 9.6 0.00 0.01 0.00 43 1006.8
20260505220016 50 277 6.1 9.6 0.00 0.01 0.00 43 1006.8
20260505215516 50 288 5.2 9.6 0.00 0.01 0.00 44 1006.7
20260505215036 50 286 5.2 10.4 0.00 0.01 0.00 43 1006.8
20260505214516 50 277 6.1 10.4 0.00 0.01 0.00 42 1006.8
20260505214016 50 267 5.2 11.3 0.00 0.01 0.00 44 1006.8
20260505213516 50 264 6.1 11.3 0.00 0.01 0.00 44 1006.7
20260505213016 50 290 6.1 9.6 0.00 0.01 0.00 43 1006.7
20260505212516 50 283 3.5 11.3 0.00 0.01 0.00 43 1006.9
20260505212016 50 311 5.2 11.3 0.00 0.01 0.00 43 1006.9
20260505211517 50 280 4.3 9.6 0.00 0.01 0.00 45 1006.9
20260505211016 50 280 6.1 10.4 0.00 0.01 0.00 43 1006.9
20260505210517 50 281 7.8 10.4 0.00 0.01 0.00 42 1006.9
20260505210016 50 279 6.1 10.4 0.00 0.01 0.00 43 1006.8
20260505205516 50 308 3.5 9.6 0.00 0.01 0.00 42 1006.8
20260505205016 50 268 7.0 10.4 0.00 0.01 0.00 43 1006.8
20260505204516 50 291 5.2 10.4 0.00 0.01 0.00 42 1006.8
20260505204016 50 280 6.1 12.2 0.00 0.01 0.00 42 1006.9
20260505203516 50 271 6.1 12.2 0.00 0.01 0.00 42 1007.0
20260505203017 50 303 7.8 12.2 0.00 0.01 0.00 41 1007.0
20260505202517 51 286 7.0 12.2 0.00 0.01 0.00 41 1007.2
20260505202016 51 303 7.0 11.3 0.00 0.01 0.00 41 1007.2
20260505201516 51 285 6.1 10.4 0.00 0.01 0.00 42 1007.2
20260505201016 51 283 5.2 11.3 0.00 0.01 0.00 42 1007.1
20260505200537 51 282 7.0 13.0 0.00 0.01 0.00 41 1007.1
20260505200016 51 300 7.8 13.0 0.00 0.01 0.00 41 1007.1
20260505195516 51 307 6.1 12.2 0.00 0.01 0.00 42 1007.1
20260505195016 51 275 7.0 12.2 0.00 0.01 0.00 42 1007.1
20260505194517 50 276 6.1 10.4 0.00 0.01 0.00 41 1007.2
20260505194016 51 296 6.1 11.3 0.00 0.01 0.00 41 1007.2
20260505193516 50 310 6.1 12.2 0.00 0.01 0.00 42 1007.2
20260505193018 50 289 7.0 13.9 0.00 0.01 0.00 41 1007.3
20260505192516 50 309 8.7 13.9 0.00 0.01 0.00 41 1007.3
20260505192016 50 304 7.8 13.9 0.00 0.01 0.00 42 1007.3
20260505191517 50 291 8.7 13.9 0.00 0.01 0.00 40 1007.3
20260505191037 51 278 7.0 12.2 0.00 0.01 0.00 41 1007.2
20260505190517 51 294 7.0 13.0 0.00 0.01 0.00 41 1007.1
20260505190036 51 300 8.7 13.0 0.00 0.01 0.00 39 1007.0
20260505185516 51 298 7.8 13.0 0.00 0.01 0.00 39 1006.9
20260505185017 51 296 7.8 13.0 0.00 0.01 0.00 37 1006.8
20260505184538 51 282 6.1 11.3 0.00 0.01 0.00 39 1006.8
20260505184017 51 295 6.1 11.3 0.00 0.01 0.00 39 1006.8
20260505183516 51 278 7.8 12.2 0.00 0.01 0.00 38 1006.7
20260505183016 51 311 7.0 12.2 0.00 0.01 0.00 37 1006.7
20260505182516 51 284 7.0 16.5 0.00 0.01 0.00 38 1006.8
20260505182016 51 275 7.8 16.5 0.00 0.01 0.00 37 1006.8
20260505181516 51 277 7.8 13.9 0.00 0.01 0.00 37 1006.8
20260505181016 51 286 7.8 15.6 0.00 0.01 0.00 39 1006.6
20260505180556 51 311 9.6 15.6 0.00 0.01 0.00 36 1006.7
20260505180016 51 315 7.0 12.2 0.00 0.01 0.00 38 1006.5
20260505175516 51 296 7.0 14.8 0.00 0.01 0.00 36 1006.5
20260505175016 51 277 9.6 18.2 0.00 0.01 0.00 36 1006.6
20260505174516 51 288 10.4 18.2 0.00 0.01 0.00 36 1006.7
20260505174016 51 299 7.8 12.2 0.00 0.01 0.00 37 1006.5
20260505173516 51 305 7.8 13.9 0.00 0.01 0.00 38 1006.4
20260505173016 51 320 8.7 13.9 0.00 0.01 0.00 39 1006.5
20260505172517 51 323 8.7 13.0 0.00 0.01 0.00 36 1006.2
20260505172036 51 329 8.7 14.8 0.00 0.01 0.00 37 1006.2
20260505171516 51 327 8.7 14.8 0.00 0.01 0.00 39 1006.2
20260505171056 51 302 8.7 13.9 0.00 0.01 0.00 36 1006.3
20260505170516 51 300 7.0 14.8 0.00 0.01 0.00 41 1005.9
20260505170016 51 314 8.7 14.8 0.00 0.01 0.00 38 1006.0
20260505165517 51 329 7.8 13.9 0.00 0.01 0.00 40 1005.9
20260505165016 51 299 7.8 13.0 0.00 0.01 0.00 39 1005.9
20260505164537 51 321 6.1 12.2 0.00 0.01 0.00 39 1005.9
20260505164016 51 301 7.8 14.8 0.00 0.01 0.00 39 1005.7
20260505163516 51 322 8.7 14.8 0.00 0.01 0.00 40 1005.7
20260505163015 50 290 7.0 11.3 0.00 0.01 0.00 42 1005.7
20260505162538 50 256 6.1 13.9 0.00 0.01 0.00 42 1005.9
20260505162016 50 292 7.0 13.9 0.00 0.01 0.00 41 1006.0
20260505161537 50 330 8.7 13.0 0.00 0.01 0.00 42 1006.2
20260505161015 50 340 7.0 13.0 0.00 0.01 0.00 43 1006.0
20260505160516 49 308 7.8 13.0 0.00 0.01 0.00 41 1006.1
20260505153016 48 295 7.0 11.3 0.00 0.01 0.00 44 1006.0
20260505152516 48 314 6.1 12.2 0.00 0.01 0.00 44 1005.9
20260505152017 48 310 7.8 13.0 0.00 0.01 0.00 44 1006.1
20260505151515 48 303 7.8 13.0 0.00 0.01 0.00 44 1006.1
20260505151016 48 298 7.0 12.2 0.00 0.01 0.00 44 1006.4
20260505150517 48 293 3.5 9.6 0.00 0.01 0.00 48 1006.4
20260505140515 46 302 7.8 14.8 0.00 0.01 0.00 59 1005.5